Change the Weather History Date:

Saturday, January 5, 2013

  Actual Average Record
Temperature  
Mean Temperature 40 °F -  
Max Temperature 50 °F 46 °F 73 °F (1984)
Min Temperature 30 °F 24 °F -4 °F (1959)
Degree Days  
Heating Degree Days 25    
Moisture  
Dew Point 32 °F    
Average Humidity 75    
Maximum Humidity 90    
Minimum Humidity 48    
Precipitation  
Precipitation 0.00 in - - ()
Sea Level Pressure  
Sea Level Pressure 30.21 in    
Wind  
Wind Speed 10 mph (WSW)    
Max Wind Speed 16 mph    
Max Gust Speed 21 mph    
Visibility 10 miles    
Events      
Averages and records for this station are not official NWS values.
T = Trace of Precipitation, MM = Missing Value Source: NWS Daily Summary

Daily Weather History Graph

Daily Weather History Graph

Search for Another Location

Airport or City:

Trip Planner

Search our weather history database for the weather conditions in past years. The results will help you decide how hot, cold, wet, or windy it might be!

Date:

Astronomy

Jan. 05, 2013 Rise Set
Actual Time 7:44 AM CST 5:34 PM CST
Civil Twilight 7:16 AM CST 6:02 PM CST
Nautical Twilight 6:44 AM CST 6:34 PM CST
Astronomical Twilight 6:13 AM CST 7:05 PM CST
Moon 12:59 AM CST (1/5) 12:19 PM CST (1/5)
Length of Visible Light 10h 46m
Length of Day
9h 49m
Last Quarter, 44% of the Moon is Illuminated
Jan 5
Last Quarter
Jan 11
New
Jan 18
First Quarter
Jan 26
Full
Feb 3
Last Quarter

Hourly Weather History & Observations

Time (CST) Temp. Windchill Dew Point Humidity Pressure Visibility Wind Dir Wind Speed Gust Speed Precip Events Conditions
12:15 AM 38.5 °F 31.6 °F 33.3 °F 81% 30.25 in 10.0 mi South 10.4 mph - N/A   Overcast
12:35 AM 38.7 °F 31.8 °F 33.6 °F 82% 30.24 in 10.0 mi SSW 10.4 mph - N/A   Mostly Cloudy
1:15 AM 37.9 °F 30.9 °F 33.8 °F 85% 30.23 in 10.0 mi SSW 10.4 mph - N/A   Mostly Cloudy
1:35 AM 37.8 °F 31.3 °F 33.4 °F 84% 30.23 in 10.0 mi SSW 9.2 mph - N/A   Mostly Cloudy
1:55 AM 37.6 °F 30.5 °F 33.4 °F 85% 30.22 in 10.0 mi SSW 10.4 mph - N/A   Overcast
2:15 AM 37.4 °F 29.8 °F 33.4 °F 86% 30.22 in 10.0 mi SSW 11.5 mph - N/A   Overcast
2:35 AM 37.4 °F 29.3 °F 33.4 °F 86% 30.22 in 10.0 mi SSW 12.7 mph 17.3 mph N/A   Overcast
2:55 AM 37.0 °F 29.3 °F 33.4 °F 87% 30.22 in 10.0 mi SSW 11.5 mph - N/A   Overcast
3:15 AM 36.9 °F 29.1 °F 33.8 °F 89% 30.22 in 10.0 mi South 11.5 mph - N/A   Overcast
3:35 AM 36.7 °F 29.4 °F 33.8 °F 89% 30.21 in 10.0 mi SSW 10.4 mph - N/A   Overcast
3:55 AM 36.9 °F 29.6 °F 33.8 °F 89% 30.21 in 10.0 mi SSW 10.4 mph - N/A   Overcast
4:15 AM 36.9 °F 30.1 °F 33.8 °F 89% 30.20 in 10.0 mi SSW 9.2 mph - N/A   Overcast
4:55 AM 36.9 °F 30.7 °F 34.2 °F 90% 30.20 in 10.0 mi South 8.1 mph - N/A   Overcast
5:15 AM 36.9 °F 30.1 °F 34.0 °F 89% 30.19 in 10.0 mi SSW 9.2 mph - N/A   Overcast
5:35 AM 36.9 °F 30.7 °F 34.0 °F 89% 30.18 in 10.0 mi South 8.1 mph - N/A   Overcast
5:55 AM 37.0 °F 31.0 °F 34.0 °F 89% 30.18 in 10.0 mi South 8.1 mph - N/A   Overcast
6:15 AM 36.9 °F 31.4 °F 33.8 °F 89% 30.19 in 10.0 mi South 6.9 mph - N/A   Overcast
6:35 AM 37.4 °F 30.8 °F 33.8 °F 87% 30.19 in 10.0 mi SSW 9.2 mph - N/A   Overcast
7:15 AM 37.4 °F 31.4 °F 33.8 °F 87% 30.20 in 10.0 mi South 8.1 mph - N/A   Overcast
7:35 AM 37.4 °F 30.8 °F 33.3 °F 85% 30.20 in 10.0 mi SSW 9.2 mph - N/A   Overcast
7:55 AM 37.4 °F 30.3 °F 33.4 °F 86% 30.19 in 10.0 mi South 10.4 mph - N/A   Overcast
8:15 AM 37.4 °F 30.3 °F 33.8 °F 87% 30.19 in 10.0 mi South 10.4 mph - N/A   Overcast
8:35 AM 37.4 °F 30.8 °F 33.8 °F 87% 30.20 in 10.0 mi South 9.2 mph - N/A   Overcast
8:55 AM 37.6 °F 30.0 °F 33.8 °F 86% 30.19 in 10.0 mi South 11.5 mph - N/A   Overcast
9:15 AM 37.9 °F 30.5 °F 34.0 °F 86% 30.19 in 10.0 mi SSW 11.5 mph - N/A   Overcast
9:35 AM 38.3 °F 31.4 °F 34.0 °F 84% 30.20 in 10.0 mi SSW 10.4 mph - N/A   Overcast
10:15 AM 39.2 °F 30.8 °F 34.0 °F 82% 30.20 in 10.0 mi SSW 15.0 mph - N/A   Mostly Cloudy
10:35 AM 41.0 °F 32.8 °F 33.8 °F 76% 30.20 in 10.0 mi SW 16.1 mph - N/A   Scattered Clouds
10:55 AM 41.0 °F 32.8 °F 33.1 °F 73% 30.20 in 10.0 mi SW 16.1 mph 20.7 mph N/A   Scattered Clouds
11:35 AM 41.9 °F 34.3 °F 33.3 °F 71% 30.19 in 10.0 mi SW 15.0 mph - N/A   Scattered Clouds
12:15 PM 43.7 °F 36.9 °F 33.6 °F 68% 30.18 in 10.0 mi WSW 13.8 mph 18.4 mph N/A   Clear
12:35 PM 44.6 °F 38.4 °F 33.8 °F 66% 30.17 in 10.0 mi SW 12.7 mph 18.4 mph N/A   Clear
12:55 PM 45.3 °F 39.7 °F 33.6 °F 64% 30.16 in 10.0 mi SW 11.5 mph - N/A   Clear
1:15 PM 46.2 °F 40.5 °F 32.9 °F 60% 30.15 in 10.0 mi WSW 12.7 mph - N/A   Clear
1:35 PM 46.6 °F - 32.5 °F 58% 30.15 in 10.0 mi SW 11.5 mph 18.4 mph N/A   Clear
2:15 PM 48.2 °F - 32.4 °F 54% 30.14 in 10.0 mi SW 10.4 mph - N/A   Clear
2:35 PM 48.4 °F - 32.5 °F 54% 30.14 in 10.0 mi WSW 10.4 mph - N/A   Clear
2:55 PM 48.9 °F - 32.2 °F 52% 30.14 in 10.0 mi WSW 10.4 mph - N/A   Clear
3:15 PM 49.6 °F - 32.0 °F 51% 30.14 in 10.0 mi WSW 9.2 mph - N/A   Clear
3:35 PM 50.0 °F - 32.0 °F 50% 30.14 in 10.0 mi West 10.4 mph - N/A   Clear
3:55 PM 50.0 °F - 31.8 °F 50% 30.16 in 10.0 mi West 9.2 mph - N/A   Clear
4:15 PM 50.0 °F - 31.3 °F 49% 30.17 in 10.0 mi West 6.9 mph - N/A   Clear
4:35 PM 50.0 °F - 31.6 °F 49% 30.18 in 10.0 mi West 6.9 mph - N/A   Clear
4:55 PM 49.3 °F - 30.0 °F 48% 30.18 in 10.0 mi WNW 10.4 mph - N/A   Clear
5:15 PM 47.7 °F - 30.9 °F 52% 30.19 in 10.0 mi WNW 6.9 mph - N/A   Clear
5:55 PM 43.2 °F 38.4 °F 28.6 °F 56% 30.22 in 10.0 mi NW 8.1 mph - N/A   Clear
6:35 PM 38.8 °F 33.8 °F 27.3 °F 63% 30.24 in 10.0 mi NW 6.9 mph - N/A   Clear
7:15 PM 37.6 °F 32.3 °F 27.1 °F 66% 30.25 in 10.0 mi NW 6.9 mph - N/A   Clear
7:35 PM 37.4 °F 32.1 °F 26.8 °F 66% 30.25 in 10.0 mi NNW 6.9 mph - N/A   Clear
7:55 PM 36.5 °F 29.7 °F 27.1 °F 69% 30.25 in 10.0 mi NW 9.2 mph - N/A   Clear
8:15 PM 35.2 °F 28.1 °F 27.3 °F 73% 30.26 in 10.0 mi NW 9.2 mph - N/A   Clear
8:35 PM 34.2 °F 26.2 °F 27.1 °F 75% 30.28 in 10.0 mi NW 10.4 mph - N/A   Clear
8:55 PM 32.9 °F 25.3 °F 27.1 °F 79% 30.28 in 10.0 mi NW 9.2 mph - N/A   Clear
9:15 PM 33.3 °F 26.4 °F 27.1 °F 78% 30.29 in 10.0 mi NW 8.1 mph - N/A   Clear
9:35 PM 33.3 °F 26.4 °F 27.1 °F 78% 30.29 in 10.0 mi NNW 8.1 mph - N/A   Clear
9:55 PM 32.4 °F 25.3 °F 27.1 °F 81% 30.29 in 10.0 mi NW 8.1 mph - N/A   Clear
10:15 PM 31.6 °F 24.4 °F 27.0 °F 83% 30.30 in 10.0 mi NW 8.1 mph - N/A   Clear
10:35 PM 32.7 °F 25.7 °F 27.3 °F 81% 30.31 in 10.0 mi NW 8.1 mph - N/A   Clear
10:55 PM 30.2 °F 22.6 °F 26.2 °F 85% 30.32 in 10.0 mi NW 8.1 mph - N/A   Clear
11:35 PM 31.1 °F 26.4 °F 26.6 °F 83% 30.33 in 10.0 mi NW 4.6 mph - N/A   Clear
11:55 PM 31.3 °F 25.6 °F 26.4 °F 82% 30.33 in 10.0 mi WNW 5.8 mph - N/A   Clear